Tracking 29892 objects as of 21-Nov-2024
HD Live streaming from Space Station
objects crossing your sky now

COSMOS 2251 DEB

Track COSMOS 2251 DEB now!
10-day predictions


NORAD ID: 34018
Int'l Code: 1993-036HD
Perigee: 775.2 km
Apogee: 1,164.0 km
Inclination: 73.9 °
Period: 104.3 minutes
Semi major axis: 7340 km
RCS: 0.04 m2 (small)
Launch date: June 16, 1993
Source: Commonwealth of Independent States (former USSR) (CIS)
Launch site: PLESETSK MISSILE AND SPACE COMPLEX (PKMTR)

Note: This is SATELLITE DEBRIS
Your satellite tracking list
Your tracking list is empty




NASA's NSSDC Master Catalog

Two Line Element Set (TLE):
1 34018U 93036HD  24325.18900333  .00001000  00000-0  75075-3 0  9998
2 34018  73.8801  28.5620 0264782 135.8650 256.9463 13.80406234793088
Source of the keplerian elements: AFSPC